Terug naar catalogus

GALS 2

ActiefCommunicatieGEO
NORAD 23717·PAYLOAD·🇷🇺 Russia

Gelanceerd Nov 17, 1995 vanaf Baikonur Cosmodrome

Loading…

TLE

VersSource: Space-Track

Epoch: Sep 14, 2026, 10:43 UTC

1 23717U 95063A   26257.44676791  .00000017  00000-0  00000-0 0  9997
2 23717  14.5101   1.9100 0006402 314.5423  78.1390  0.99878552112521

Volg GALS 2 in realtime met AllMySat

Download on the App Store